| time (UTC) | temp F | wind direction | speed knots | gust knots | rain 1hr in | rain 24hr in | rain mn in | humidity % | barometer mb |
| 20260504222702 | 51 | 112 | 0.0 | 0.0 | 0.00 | 0.00 | 0.00 | 69 | 1012.5 |
| 20260504222202 | 52 | 112 | 0.0 | 0.0 | 0.00 | 0.00 | 0.00 | 68 | 1012.5 |
| 20260504221702 | 52 | 112 | 0.0 | 0.0 | 0.00 | 0.00 | 0.00 | 67 | 1012.5 |
| 20260504221201 | 52 | 112 | 0.0 | 0.0 | 0.00 | 0.00 | 0.00 | 67 | 1012.5 |
| 20260504220701 | 53 | 112 | 0.0 | 0.0 | 0.00 | 0.00 | 0.00 | 66 | 1012.5 |
| 20260504220201 | 53 | 112 | 0.0 | 0.0 | 0.00 | 0.00 | 0.00 | 66 | 1012.4 |
| 20260504215700 | 53 | 112 | 0.0 | 0.0 | 0.00 | 0.00 | 0.00 | 65 | 1012.5 |
| 20260504215200 | 53 | 112 | 0.0 | 0.0 | 0.00 | 0.00 | 0.00 | 65 | 1012.4 |
| 20260504214700 | 53 | 112 | 0.0 | 0.0 | 0.00 | 0.00 | 0.00 | 66 | 1012.5 |
| 20260504214200 | 53 | 112 | 0.0 | 0.9 | 0.00 | 0.00 | 0.00 | 66 | 1012.4 |
| 20260504213659 | 54 | 112 | 0.0 | 0.0 | 0.00 | 0.00 | 0.00 | 66 | 1012.4 |
| 20260504213159 | 54 | 112 | 0.0 | 0.0 | 0.00 | 0.00 | 0.00 | 65 | 1012.4 |
| 20260504212659 | 54 | 112 | 0.0 | 0.0 | 0.00 | 0.00 | 0.00 | 65 | 1012.5 |
| 20260504212158 | 54 | 112 | 0.0 | 0.0 | 0.00 | 0.00 | 0.00 | 65 | 1012.4 |
| 20260504211658 | 54 | 112 | 0.0 | 0.9 | 0.00 | 0.00 | 0.00 | 66 | 1012.4 |
| 20260504211158 | 54 | 112 | 0.9 | 0.9 | 0.00 | 0.00 | 0.00 | 65 | 1012.4 |
| 20260504210657 | 54 | 112 | 0.0 | 0.0 | 0.00 | 0.00 | 0.00 | 66 | 1012.4 |
| 20260504210157 | 54 | 112 | 0.0 | 0.0 | 0.00 | 0.00 | 0.00 | 66 | 1012.4 |
| 20260504205657 | 54 | 112 | 0.0 | 0.0 | 0.00 | 0.00 | 0.00 | 66 | 1012.4 |
| 20260504205157 | 54 | 112 | 0.0 | 0.0 | 0.00 | 0.00 | 0.00 | 67 | 1012.4 |
| 20260504204656 | 55 | 112 | 0.0 | 0.9 | 0.00 | 0.00 | 0.00 | 67 | 1012.3 |
| 20260504204156 | 55 | 112 | 0.9 | 0.9 | 0.00 | 0.00 | 0.00 | 67 | 1012.3 |
| 20260504203656 | 55 | 112 | 0.0 | 0.0 | 0.00 | 0.00 | 0.00 | 67 | 1012.3 |
| 20260504203155 | 55 | 112 | 0.0 | 0.0 | 0.00 | 0.00 | 0.00 | 68 | 1012.3 |
| 20260504202655 | 55 | 112 | 0.0 | 0.0 | 0.00 | 0.00 | 0.00 | 68 | 1012.4 |
| 20260504202155 | 55 | 112 | 0.0 | 0.0 | 0.00 | 0.00 | 0.00 | 67 | 1012.3 |
| 20260504201655 | 55 | 112 | 0.0 | 0.0 | 0.00 | 0.00 | 0.00 | 66 | 1012.3 |
| 20260504201154 | 56 | 112 | 0.0 | 0.9 | 0.00 | 0.00 | 0.00 | 65 | 1012.2 |
| 20260504200654 | 56 | 112 | 0.0 | 0.0 | 0.00 | 0.00 | 0.00 | 64 | 1012.2 |
| 20260504200154 | 56 | 112 | 0.0 | 0.0 | 0.00 | 0.00 | 0.00 | 64 | 1012.2 |
| 20260504195653 | 56 | 112 | 0.0 | 0.0 | 0.00 | 0.00 | 0.00 | 64 | 1012.2 |
| 20260504195153 | 57 | 112 | 0.0 | 0.0 | 0.00 | 0.00 | 0.00 | 63 | 1012.1 |
| 20260504194653 | 57 | 112 | 0.0 | 0.0 | 0.00 | 0.00 | 0.00 | 63 | 1012.2 |
| 20260504194152 | 57 | 112 | 0.0 | 0.0 | 0.00 | 0.00 | 0.00 | 64 | 1012.2 |
| 20260504193652 | 57 | 112 | 0.0 | 0.0 | 0.00 | 0.00 | 0.00 | 63 | 1012.1 |
| 20260504193152 | 58 | 112 | 0.0 | 0.0 | 0.00 | 0.00 | 0.00 | 63 | 1012.1 |
| 20260504192652 | 58 | 112 | 0.0 | 0.9 | 0.00 | 0.00 | 0.00 | 63 | 1012.1 |
| 20260504192151 | 58 | 112 | 0.0 | 1.7 | 0.00 | 0.00 | 0.00 | 62 | 1012.1 |
| 20260504191651 | 58 | 112 | 0.0 | 0.9 | 0.00 | 0.00 | 0.00 | 62 | 1012.1 |
| 20260504191151 | 59 | 112 | 0.0 | 0.0 | 0.00 | 0.00 | 0.00 | 61 | 1012.1 |
| 20260504190650 | 59 | 112 | 0.0 | 1.7 | 0.00 | 0.00 | 0.00 | 61 | 1012.1 |
| 20260504190150 | 59 | 112 | 0.0 | 0.0 | 0.00 | 0.00 | 0.00 | 60 | 1012.2 |
| 20260504185650 | 59 | 112 | 0.0 | 0.9 | 0.00 | 0.00 | 0.00 | 60 | 1012.2 |
| 20260504185150 | 60 | 112 | 0.0 | 0.0 | 0.00 | 0.00 | 0.00 | 59 | 1012.1 |
| 20260504184649 | 60 | 112 | 0.0 | 0.9 | 0.00 | 0.00 | 0.00 | 60 | 1012.2 |
| 20260504184149 | 60 | 112 | 0.9 | 1.7 | 0.00 | 0.00 | 0.00 | 59 | 1012.0 |
| 20260504183649 | 60 | 112 | 0.0 | 0.0 | 0.00 | 0.00 | 0.00 | 59 | 1012.1 |
| 20260504183148 | 61 | 112 | 0.0 | 0.9 | 0.00 | 0.00 | 0.00 | 59 | 1012.0 |
| 20260504182648 | 61 | 112 | 0.0 | 0.0 | 0.00 | 0.00 | 0.00 | 58 | 1011.9 |
| 20260504182148 | 61 | 112 | 0.0 | 1.7 | 0.00 | 0.00 | 0.00 | 59 | 1011.9 |
| 20260504181647 | 61 | 112 | 0.9 | 1.7 | 0.00 | 0.00 | 0.00 | 59 | 1012.0 |
| 20260504181147 | 61 | 112 | 0.0 | 2.6 | 0.00 | 0.00 | 0.00 | 58 | 1011.8 |
| 20260504180647 | 62 | 112 | 2.6 | 2.6 | 0.00 | 0.00 | 0.00 | 58 | 1011.8 |
| 20260504180147 | 62 | 90 | 0.0 | 0.0 | 0.00 | 0.00 | 0.00 | 59 | 1011.7 |
| 20260504175646 | 62 | 90 | 0.0 | 2.6 | 0.00 | 0.00 | 0.00 | 57 | 1011.6 |
| 20260504175146 | 63 | 90 | 1.7 | 1.7 | 0.00 | 0.00 | 0.00 | 57 | 1011.6 |
| 20260504174646 | 63 | 90 | 0.0 | 0.9 | 0.00 | 0.00 | 0.00 | 56 | 1011.5 |
| 20260504174147 | 63 | 90 | 0.0 | 2.6 | 0.00 | 0.00 | 0.00 | 57 | 1011.5 |
| 20260504173645 | 64 | 90 | 1.7 | 1.7 | 0.00 | 0.00 | 0.00 | 56 | 1011.5 |
| 20260504173145 | 64 | 90 | 0.0 | 1.7 | 0.00 | 0.00 | 0.00 | 55 | 1011.5 |
| 20260504172645 | 64 | 90 | 0.0 | 2.6 | 0.00 | 0.00 | 0.00 | 55 | 1011.4 |
| 20260504172145 | 65 | 90 | 0.0 | 0.9 | 0.00 | 0.00 | 0.00 | 55 | 1011.5 |
| 20260504171644 | 66 | 90 | 0.0 | 1.7 | 0.00 | 0.00 | 0.00 | 54 | 1011.4 |
| 20260504171144 | 66 | 90 | 1.7 | 2.6 | 0.00 | 0.00 | 0.00 | 53 | 1011.4 |
| 20260504170643 | 66 | 67 | 0.0 | 0.0 | 0.00 | 0.00 | 0.00 | 53 | 1011.3 |
| 20260504170143 | 66 | 67 | 0.0 | 0.9 | 0.00 | 0.00 | 0.00 | 52 | 1011.3 |
| 20260504160140 | 68 | 157 | 0.0 | 0.9 | 0.00 | 0.00 | 0.00 | 51 | 1010.9 |
| 20260504151137 | 73 | 0 | 0.0 | 0.0 | 0.00 | 0.00 | 0.00 | 50 | 1010.9 |
| 20260504150636 | 71 | 0 | 0.0 | 0.0 | 0.00 | 0.00 | 0.00 | 53 | 1010.9 |
| 20260504150136 | 68 | 0 | 0.0 | 0.0 | 0.00 | 0.00 | 0.00 | 56 | 1010.9 |
| 20260504141133 | 74 | 292 | 0.0 | 2.6 | 0.00 | 0.00 | 0.00 | 40 | 1011.4 |
| 20260504140633 | 74 | 292 | 0.0 | 1.7 | 0.00 | 0.00 | 0.00 | 41 | 1011.4 |
| 20260504140133 | 74 | 292 | 0.0 | 3.5 | 0.00 | 0.00 | 0.00 | 41 | 1011.4 |
| 20260504130630 | 76 | 292 | 1.7 | 5.2 | 0.00 | 0.00 | 0.00 | 40 | 1011.9 |
| 20260504130129 | 76 | 292 | 1.7 | 6.1 | 0.00 | 0.00 | 0.00 | 40 | 1012.0 |
| 20260504120126 | 76 | 292 | 4.3 | 12.2 | 0.00 | 0.00 | 0.00 | 40 | 1012.5 |
| 20260504110622 | 74 | 315 | 0.0 | 7.8 | 0.00 | 0.00 | 0.00 | 41 | 1013.2 |
| 20260504110122 | 73 | 292 | 2.6 | 9.6 | 0.00 | 0.00 | 0.00 | 42 | 1013.1 |
| 20260504100118 | 72 | 292 | 3.5 | 7.0 | 0.00 | 0.00 | 0.00 | 43 | 1013.7 |
| 20260504090115 | 68 | 292 | 0.9 | 12.2 | 0.00 | 0.00 | 0.00 | 45 | 1014.1 |
| 20260504081612 | 66 | 292 | 3.5 | 13.9 | 0.00 | 0.00 | 0.00 | 46 | 1014.3 |
| 20260504081112 | 66 | 0 | 0.0 | 12.2 | 0.00 | 0.00 | 0.00 | 46 | 1014.3 |
| 20260504080612 | 66 | 292 | 5.2 | 10.4 | 0.00 | 0.00 | 0.00 | 45 | 1014.3 |
| 20260504080111 | 66 | 292 | 8.7 | 14.8 | 0.00 | 0.00 | 0.00 | 46 | 1014.3 |
| 20260504070108 | 64 | 337 | 3.5 | 11.3 | 0.00 | 0.00 | 0.00 | 46 | 1014.3 |
| 20260504060104 | 64 | 292 | 0.0 | 4.3 | 0.00 | 0.00 | 0.00 | 49 | 1014.5 |
| 20260504050601 | 60 | 292 | 0.0 | 3.5 | 0.00 | 0.00 | 0.00 | 54 | 1014.6 |
| 20260504045601 | 58 | 292 | 0.0 | 3.5 | 0.00 | 0.00 | 0.00 | 56 | 1014.5 |
| 20260504045100 | 57 | 292 | 0.0 | 1.7 | 0.00 | 0.00 | 0.00 | 57 | 1014.6 |
| 20260504044600 | 55 | 292 | 0.0 | 1.7 | 0.00 | 0.00 | 0.00 | 58 | 1014.6 |
| 20260504044100 | 55 | 292 | 0.0 | 1.7 | 0.00 | 0.00 | 0.00 | 60 | 1014.6 |
| 20260504043559 | 53 | 292 | 0.0 | 3.5 | 0.00 | 0.00 | 0.00 | 61 | 1014.7 |
| 20260504043059 | 52 | 0 | 0.0 | 0.9 | 0.00 | 0.00 | 0.00 | 62 | 1014.6 |
| 20260504042559 | 50 | 0 | 0.0 | 1.7 | 0.00 | 0.00 | 0.00 | 64 | 1014.6 |
| 20260504042059 | 49 | 0 | 0.0 | 0.0 | 0.00 | 0.00 | 0.00 | 65 | 1014.7 |
| 20260504041558 | 48 | 0 | 0.0 | 0.0 | 0.00 | 0.00 | 0.00 | 66 | 1014.7 |
| 20260504041058 | 48 | 0 | 0.0 | 0.9 | 0.00 | 0.00 | 0.00 | 67 | 1014.7 |
| 20260504040558 | 47 | 0 | 0.0 | 0.0 | 0.00 | 0.00 | 0.00 | 67 | 1014.7 |
| 20260504040057 | 47 | 0 | 0.0 | 0.9 | 0.00 | 0.00 | 0.00 | 67 | 1014.6 |
| 20260504035557 | 46 | 292 | 0.0 | 0.0 | 0.00 | 0.00 | 0.00 | 67 | 1014.6 |
| 20260504035057 | 46 | 292 | 0.0 | 0.0 | 0.00 | 0.00 | 0.00 | 67 | 1014.6 |
| 20260504034557 | 46 | 292 | 0.0 | 0.0 | 0.00 | 0.00 | 0.00 | 67 | 1014.6 |
| 20260504034056 | 46 | 292 | 0.0 | 0.0 | 0.00 | 0.00 | 0.00 | 67 | 1014.7 |
| 20260504033556 | 46 | 292 | 0.0 | 0.0 | 0.00 | 0.00 | 0.00 | 68 | 1014.6 |
| 20260504033056 | 46 | 292 | 0.0 | 0.9 | 0.00 | 0.00 | 0.00 | 68 | 1014.7 |
| 20260504032555 | 45 | 292 | 0.0 | 0.9 | 0.00 | 0.00 | 0.00 | 68 | 1014.6 |
| 20260504032055 | 45 | 292 | 0.0 | 0.0 | 0.00 | 0.00 | 0.00 | 67 | 1014.6 |
| 20260504031555 | 45 | 292 | 0.0 | 0.0 | 0.00 | 0.00 | 0.00 | 67 | 1014.6 |
| 20260504031054 | 45 | 292 | 0.0 | 0.0 | 0.00 | 0.00 | 0.00 | 67 | 1014.5 |
| 20260504030554 | 45 | 292 | 0.0 | 0.0 | 0.00 | 0.00 | 0.00 | 68 | 1014.5 |
| 20260504030054 | 45 | 292 | 0.0 | 0.0 | 0.00 | 0.00 | 0.00 | 67 | 1014.5 |
| 20260504025554 | 45 | 292 | 0.0 | 0.0 | 0.00 | 0.00 | 0.00 | 67 | 1014.6 |
| 20260504025053 | 45 | 292 | 0.0 | 0.0 | 0.00 | 0.00 | 0.00 | 67 | 1014.7 |
| 20260504024553 | 45 | 292 | 0.0 | 0.0 | 0.00 | 0.00 | 0.00 | 66 | 1014.5 |
| 20260504024053 | 45 | 292 | 0.0 | 0.0 | 0.00 | 0.00 | 0.00 | 65 | 1014.6 |
| 20260504023552 | 45 | 292 | 0.0 | 0.0 | 0.00 | 0.00 | 0.00 | 65 | 1014.7 |
| 20260504023052 | 46 | 292 | 0.0 | 0.0 | 0.00 | 0.00 | 0.00 | 65 | 1014.7 |
| 20260504022552 | 46 | 292 | 0.0 | 0.0 | 0.00 | 0.00 | 0.00 | 65 | 1014.7 |
| 20260504022051 | 46 | 292 | 0.0 | 0.9 | 0.00 | 0.00 | 0.00 | 65 | 1014.7 |
| 20260504021551 | 46 | 315 | 0.0 | 0.0 | 0.00 | 0.00 | 0.00 | 65 | 1014.8 |
| 20260504021051 | 46 | 0 | 0.0 | 3.5 | 0.00 | 0.00 | 0.00 | 65 | 1014.8 |
| 20260504020551 | 46 | 292 | 0.0 | 4.3 | 0.00 | 0.00 | 0.00 | 64 | 1014.8 |
| 20260504020050 | 46 | 292 | 1.7 | 2.6 | 0.00 | 0.00 | 0.00 | 63 | 1014.7 |
| 20260504015550 | 46 | 292 | 0.0 | 1.7 | 0.00 | 0.00 | 0.00 | 63 | 1014.7 |
| 20260504015050 | 46 | 292 | 1.7 | 1.7 | 0.00 | 0.00 | 0.00 | 63 | 1014.7 |
| 20260504014549 | 46 | 292 | 0.9 | 2.6 | 0.00 | 0.00 | 0.00 | 63 | 1014.7 |
| 20260504014049 | 46 | 292 | 1.7 | 2.6 | 0.00 | 0.00 | 0.00 | 63 | 1014.7 |
| 20260504013549 | 47 | 292 | 0.0 | 4.3 | 0.00 | 0.00 | 0.00 | 63 | 1014.7 |
| 20260504013049 | 46 | 292 | 1.7 | 3.5 | 0.00 | 0.00 | 0.00 | 63 | 1014.6 |
| 20260504012548 | 46 | 292 | 1.7 | 4.3 | 0.00 | 0.00 | 0.00 | 62 | 1014.7 |
| 20260504012048 | 46 | 315 | 1.7 | 1.7 | 0.00 | 0.00 | 0.00 | 62 | 1014.7 |
| 20260504011548 | 46 | 315 | 0.0 | 2.6 | 0.00 | 0.00 | 0.00 | 62 | 1014.8 |
| 20260504011047 | 46 | 315 | 1.7 | 4.3 | 0.00 | 0.00 | 0.00 | 62 | 1014.5 |
| 20260504010547 | 47 | 292 | 0.9 | 3.5 | 0.00 | 0.00 | 0.00 | 62 | 1014.6 |
| 20260504010047 | 47 | 292 | 2.6 | 4.3 | 0.00 | 0.00 | 0.00 | 62 | 1014.5 |
| 20260504005547 | 47 | 292 | 0.0 | 1.7 | 0.00 | 0.00 | 0.00 | 62 | 1014.3 |
| 20260504005046 | 47 | 292 | 0.0 | 0.0 | 0.00 | 0.00 | 0.00 | 62 | 1014.3 |
| 20260504004546 | 47 | 292 | 0.0 | 0.0 | 0.00 | 0.00 | 0.00 | 62 | 1014.4 |
| 20260504004046 | 47 | 292 | 0.0 | 0.0 | 0.00 | 0.00 | 0.00 | 61 | 1014.4 |
| 20260504003545 | 47 | 292 | 0.0 | 0.0 | 0.00 | 0.00 | 0.00 | 61 | 1014.4 |
| 20260504003045 | 48 | 292 | 0.0 | 0.0 | 0.00 | 0.00 | 0.00 | 60 | 1014.3 |
| 20260504002545 | 48 | 292 | 0.0 | 0.0 | 0.00 | 0.00 | 0.00 | 59 | 1014.2 |
| 20260504002044 | 48 | 292 | 0.0 | 0.0 | 0.00 | 0.00 | 0.00 | 59 | 1014.2 |
| 20260504001544 | 48 | 292 | 0.0 | 0.0 | 0.00 | 0.00 | 0.00 | 58 | 1014.2 |
| 20260504001044 | 48 | 292 | 0.0 | 0.0 | 0.00 | 0.00 | 0.00 | 57 | 1014.3 |
| 20260504000544 | 49 | 292 | 0.0 | 0.9 | 0.00 | 0.00 | 0.00 | 56 | 1014.2 |
| 20260504000043 | 49 | 292 | 0.0 | 0.0 | 0.00 | 0.00 | 0.00 | 56 | 1014.1 |
| 20260503235543 | 49 | 292 | 0.0 | 0.0 | 0.00 | 0.00 | 0.00 | 56 | 1014.2 |
| 20260503235043 | 49 | 292 | 0.0 | 0.0 | 0.00 | 0.00 | 0.00 | 56 | 1014.1 |
| 20260503234542 | 49 | 292 | 0.0 | 0.0 | 0.00 | 0.00 | 0.00 | 56 | 1014.2 |
| 20260503234042 | 48 | 292 | 0.0 | 0.0 | 0.00 | 0.00 | 0.00 | 57 | 1014.1 |
| 20260503233542 | 48 | 292 | 0.0 | 0.0 | 0.00 | 0.00 | 0.00 | 57 | 1014.2 |
| 20260503233042 | 48 | 292 | 0.0 | 0.0 | 0.00 | 0.00 | 0.00 | 58 | 1014.2 |
| 20260503232541 | 49 | 292 | 0.0 | 0.0 | 0.00 | 0.00 | 0.00 | 58 | 1014.1 |
| 20260503232041 | 49 | 292 | 0.0 | 0.0 | 0.00 | 0.00 | 0.00 | 57 | 1014.2 |
| 20260503231541 | 49 | 292 | 0.0 | 0.0 | 0.00 | 0.00 | 0.00 | 57 | 1014.1 |
| 20260503231040 | 49 | 292 | 0.0 | 0.0 | 0.00 | 0.00 | 0.00 | 57 | 1014.2 |
| 20260503230540 | 49 | 292 | 0.0 | 0.0 | 0.00 | 0.00 | 0.00 | 57 | 1014.2 |
| 20260503230040 | 49 | 292 | 0.0 | 0.0 | 0.00 | 0.00 | 0.00 | 57 | 1014.2 |
| 20260503225540 | 49 | 292 | 0.0 | 0.0 | 0.00 | 0.00 | 0.00 | 57 | 1014.3 |
| 20260503225039 | 49 | 292 | 0.0 | 0.0 | 0.00 | 0.00 | 0.00 | 57 | 1014.3 |
| 20260503224539 | 49 | 292 | 0.0 | 0.0 | 0.00 | 0.00 | 0.00 | 57 | 1014.4 |
| 20260503224039 | 49 | 292 | 0.0 | 0.0 | 0.00 | 0.00 | 0.00 | 56 | 1014.4 |
| 20260503223538 | 49 | 292 | 0.0 | 0.9 | 0.00 | 0.00 | 0.00 | 56 | 1014.5 |
| 20260503223038 | 49 | 292 | 0.0 | 0.9 | 0.00 | 0.00 | 0.00 | 56 | 1014.5 |